This demonstration page uses our WeatherBlox Daily Observations layout. Learn more.

Hourly Observations for August 15, 2019

Temp ( °F °C ) Dew Point ( °F °C ) Humidity (%) Winds ( mph kmh ) Pressure ( in mb ) Visibility ( mi km ) Precip ( " mm )
12:15 am 00:15 Clear 72 22 72 22 100 100 Calm 29.94 1014 10 16.09344 0 0
12:35 am 00:35 Clear 72 22 72 22 100 100 Calm 29.94 1014 10 16.09344 0 0
12:55 am 00:55 Partly Cloudy 73 23 72 22 94 94 Calm 29.94 1014 10 16.09344 0 0
1:15 am 01:15 Clear 73 23 72 22 94 94 Calm 29.94 1014 10 16.09344 0 0
1:35 am 01:35 Clear 72 22 70 21 94 94 Calm 29.94 1014 10 16.09344 0 0
1:55 am 01:55 Clear 70 21 70 21 100 100 Calm 29.94 1014 10 16.09344 0 0
2:15 am 02:15 Clear 72 22 70 21 94 94 Calm 29.94 1014 10 16.09344 0 0
2:35 am 02:35 Clear 70 21 70 21 100 100 Calm 29.94 1014 10 16.09344 0 0
2:55 am 02:55 Clear 70 21 70 21 100 100 Calm 29.94 1014 10 16.09344 0 0
3:15 am 03:15 Clear 70 21 70 21 100 100 Calm 29.94 1014 10 16.09344 0 0
3:35 am 03:35 Mostly Cloudy 68 20 68 20 100 100 Calm 29.94 1014 10 16.09344 0 0
3:55 am 03:55 Partly Cloudy 70 21 70 21 100 100 NNE 5 7 29.94 1014 10 16.09344 0 0
4:15 am 04:15 Clear 70 21 70 21 100 100 NNE 5 7 29.94 1014 10 16.09344 0 0
4:35 am 04:35 Clear 70 21 70 21 100 100 Calm 29.94 1014 10 16.09344 0 0
4:55 am 04:55 Clear 70 21 70 21 100 100 NNE 5 7 29.94 1014 10 16.09344 0 0
5:15 am 05:15 Partly Cloudy 70 21 70 21 100 100 NNE 3 6 29.94 1014 10 16.09344 0 0
5:35 am 05:35 Mostly Cloudy 70 21 70 21 100 100 Calm 29.94 1014 10 16.09344 0 0
5:55 am 05:55 Partly Cloudy 70 21 70 21 100 100 Calm 29.94 1014 10 16.09344 0 0
6:15 am 06:15 Mostly Cloudy 70 21 70 21 100 100 Calm 29.94 1014 7 11.265408 0 0
6:55 am 06:55 Cloudy 70 21 70 21 100 100 NE 3 6 29.97 1015 4 6.437376 0 0
7:15 am 07:15 Cloudy 70 21 70 21 100 100 ENE 3 6 29.97 1015 2 3.218688 0 0
7:55 am 07:55 Cloudy 70 21 70 21 100 100 Calm 30 1016 2 3.218688 0 0
8:15 am 08:15 Cloudy 70 21 70 21 100 100 Calm 30 1016 3 4.828032 0 0
8:35 am 08:35 Cloudy 70 21 70 21 100 100 ENE 3 6 30 1016 4 6.437376 0 0
8:55 am 08:55 Cloudy 72 22 70 21 94 94 ENE 3 6 30 1016 4 6.437376 0 0
9:15 am 09:15 Cloudy 72 22 70 21 94 94 ENE 5 7 30 1016 5 8.04672 0 0
9:35 am 09:35 Cloudy 72 22 70 21 94 94 E 3 6 30 1016 7 11.265408 0 0
9:55 am 09:55 Cloudy 72 22 70 21 94 94 ESE 6 9 30.03 1017 10 16.09344 0 0
10:15 am 10:15 Cloudy 73 23 70 21 89 89 ESE 7 11 30.03 1017 10 16.09344 0 0
10:35 am 10:35 Cloudy 73 23 70 21 89 89 ESE 6 9 30.03 1017 10 16.09344 0 0
10:55 am 10:55 Cloudy 73 23 70 21 89 89 ESE 7 11 30.03 1017 10 16.09344 0 0
11:15 am 11:15 Cloudy 75 24 72 22 89 89 E 5 7 30.03 1017 10 16.09344 0 0
11:35 am 11:35 Cloudy 75 24 72 22 89 89 ESE 6 9 30.03 1017 7 11.265408 0 0
11:55 am 11:55 Cloudy 75 24 72 22 89 89 ENE 3 6 30.03 1017 7 11.265408 0 0
12:15 pm 12:15 Cloudy 77 25 72 22 83 83 ESE 5 7 30 1016 10 16.09344 0 0
12:35 pm 12:35 Cloudy 77 25 72 22 83 83 ESE 8 13 30 1016 10 16.09344 0 0
12:55 pm 12:55 Cloudy with Thunderstorms 79 26 72 22 79 79 ESE 9 15 30 1016 10 16.09344 0 0
1:15 pm 13:15 Cloudy with Nearby Thunderstorms 79 26 72 22 79 79 E 5 7 30 1016 10 16.09344 0 0
1:35 pm 13:35 Cloudy 79 26 72 22 79 79 Calm 30 1016 10 16.09344 0 0
1:55 pm 13:55 Cloudy with Nearby Thunderstorms 77 25 72 22 83 83 NE 3 6 30 1016 7 11.265408 0 0
2:15 pm 14:15 Cloudy 77 25 73 23 89 89 NE 5 7 29.97 1015 5 8.04672 0.01 0.254
2:35 pm 14:35 Cloudy with Thunderstorms 75 24 73 23 94 94 NW 7 11 30 1016 5 8.04672 0.03 0.762
2:55 pm 14:55 Cloudy with Thunderstorms 72 22 72 22 100 100 SW 10 17 30 1016 3 4.828032 0.09 2.286
3:15 pm 15:15 Cloudy with Thunderstorms 72 22 72 22 100 100 S 9 15 29.97 1015 3 4.828032 0.08 2.032
3:35 pm 15:35 Cloudy with Nearby Thunderstorms 72 22 72 22 100 100 SSW 8 13 29.97 1015 7 11.265408 0.09 2.286
3:55 pm 15:55 Cloudy 70 21 70 21 100 100 S 8 13 29.97 1015 10 16.09344 0.09 2.286
4:15 pm 16:15 Cloudy 70 21 68 20 94 94 SE 6 9 29.94 1014 10 16.09344 0 0
4:35 pm 16:35 Partly Cloudy 70 21 68 20 94 94 ESE 5 7 29.94 1014 10 16.09344 0.01 0.254
4:55 pm 16:55 Sunny 72 22 68 20 88 88 SSE 5 7 29.94 1014 10 16.09344 0.01 0.254
5:15 pm 17:15 Partly Cloudy 73 23 70 21 89 89 Calm 29.97 1015 10 16.09344 0 0
5:35 pm 17:35 Mostly Cloudy 75 24 70 21 83 83 SE 3 6 29.97 1015 10 16.09344 0 0
5:55 pm 17:55 Partly Cloudy 77 25 70 21 79 79 SE 3 6 29.97 1015 10 16.09344 0 0
6:15 pm 18:15 Sunny 77 25 70 21 79 79 S 3 6 29.97 1015 10 16.09344 0 0
6:35 pm 18:35 Sunny 75 24 72 22 89 89 Calm 29.94 1014 10 16.09344 0 0
6:55 pm 18:55 Sunny 75 24 72 22 89 89 Calm 29.94 1014 10 16.09344 0 0
7:15 pm 19:15 Partly Cloudy 73 23 72 22 94 94 Calm 29.94 1014 10 16.09344 0 0
7:35 pm 19:35 Cloudy 75 24 72 22 89 89 SE 3 6 29.94 1014 10 16.09344 0 0
7:55 pm 19:55 Partly Cloudy 73 23 72 22 94 94 ESE 5 7 29.94 1014 10 16.09344 0 0
8:15 pm 20:15 Clear with Nearby Thunderstorms 73 23 72 22 94 94 Calm 29.94 1014 10 16.09344 0 0
8:35 pm 20:35 Partly Cloudy 72 22 72 22 100 100 Calm 29.97 1015 10 16.09344 0 0
8:55 pm 20:55 Partly Cloudy 72 22 72 22 100 100 Calm 29.97 1015 10 16.09344 0 0
9:15 pm 21:15 Clear 72 22 72 22 100 100 Calm 29.97 1015 10 16.09344 0 0
9:35 pm 21:35 Clear 70 21 70 21 100 100 Calm 29.97 1015 10 16.09344 0 0
9:55 pm 21:55 Partly Cloudy 70 21 70 21 100 100 Calm 30 1016 10 16.09344 0 0
10:15 pm 22:15 Partly Cloudy 70 21 70 21 100 100 Calm 30 1016 10 16.09344 0 0
10:35 pm 22:35 Partly Cloudy 70 21 70 21 100 100 Calm 30 1016 10 16.09344 0 0
10:55 pm 22:55 Mostly Cloudy 68 20 68 20 100 100 Calm 30 1016 7 11.265408 0 0
11:15 pm 23:15 Partly Cloudy 68 20 68 20 100 100 Calm 30 1016 10 16.09344 0 0
11:35 pm 23:35 Partly Cloudy 68 20 68 20 100 100 Calm 30 1016 10 16.09344 0 0
11:55 pm 23:55 Cloudy 70 21 70 21 100 100 Calm 30 1016 7 11.265408 0 0

Powered by AerisWeather